FLOCK 4BE-16

Last updated on Mon Sep 16 2024 00:02:03 GMT+0000 (Coordinated Universal Time)

1 60483U 24149R 24258.90561640 .00020517 00000+0 10009-2 0 9999 2 60483 97.4408 333.9993 0004238 18.3224 341.8162 15.18320728 4412
UTC large
Height (km)
Speed (km/s)
/
Latitude / Longitude
Inclination (degrees)
Orbital Period (minutes)
Azimuth
Elevation
Range (km)
Doppler Factor

Next 0 passes for location: London (51.5072 / 0.1276)

Sorry there are no passes over London.